Year,Month,Day,Hour,Minute,Value (Times are PST for temperature in C)
2018,02,09,11,39,5.90
2018,02,09,11,40,5.90
2018,02,09,11,41,5.90
2018,02,09,11,42,5.90
2018,02,09,11,43,5.90
2018,02,09,11,44,6.00
2018,02,09,11,45,6.00
2018,02,09,11,46,6.10
2018,02,09,11,47,6.10
2018,02,09,11,48,6.10
2018,02,09,11,49,6.10
2018,02,09,11,50,6.10
2018,02,09,11,51,6.10
2018,02,09,11,52,6.10
2018,02,09,11,53,6.10
2018,02,09,11,54,6.20
2018,02,09,11,55,6.20
2018,02,09,11,56,6.20
2018,02,09,11,57,6.20
2018,02,09,11,58,6.20
2018,02,09,11,59,6.30
2018,02,09,12,00,6.30
2018,02,09,12,01,6.30
2018,02,09,12,02,6.30
2018,02,09,12,03,6.30
2018,02,09,12,04,6.30
2018,02,09,12,05,6.30
2018,02,09,12,06,6.30
2018,02,09,12,07,6.30
2018,02,09,12,08,6.40
2018,02,09,12,09,6.40
2018,02,09,12,10,6.40
2018,02,09,12,11,6.40
2018,02,09,12,12,6.40
2018,02,09,12,13,6.40
2018,02,09,12,14,6.40
2018,02,09,12,15,6.50
2018,02,09,12,16,6.50
2018,02,09,12,17,6.50
2018,02,09,12,18,6.50
2018,02,09,12,19,6.50
2018,02,09,12,20,6.50
2018,02,09,12,21,6.60
2018,02,09,12,22,6.60
2018,02,09,12,23,6.60
2018,02,09,12,24,6.70
2018,02,09,12,25,6.70
2018,02,09,12,26,6.70
2018,02,09,12,27,6.70
2018,02,09,12,28,6.80
2018,02,09,12,29,6.80
2018,02,09,12,30,6.80
2018,02,09,12,31,6.80
2018,02,09,12,32,6.80
2018,02,09,12,33,6.80
2018,02,09,12,34,6.80
2018,02,09,12,35,6.80
2018,02,09,12,36,6.80
2018,02,09,12,37,6.80
2018,02,09,12,38,6.80
2018,02,09,12,39,6.80
2018,02,09,12,40,6.80
2018,02,09,12,41,6.90
2018,02,09,12,42,6.90
2018,02,09,12,43,6.90
2018,02,09,12,44,6.90
2018,02,09,12,45,6.90
2018,02,09,12,46,6.90
2018,02,09,12,47,7.00
2018,02,09,12,48,7.00
2018,02,09,12,49,7.00
2018,02,09,12,50,7.00
2018,02,09,12,51,7.00
2018,02,09,12,52,7.10
2018,02,09,12,53,7.10
2018,02,09,12,54,7.10
2018,02,09,12,55,7.10
2018,02,09,12,56,7.10
2018,02,09,12,57,7.10
2018,02,09,12,58,7.20
2018,02,09,12,59,7.20
2018,02,09,13,00,7.20
2018,02,09,13,01,7.20
2018,02,09,13,02,7.20
2018,02,09,13,03,7.20
2018,02,09,13,04,7.20
2018,02,09,13,05,7.30
2018,02,09,13,06,7.30
2018,02,09,13,07,7.30
2018,02,09,13,08,7.30
2018,02,09,13,09,7.40
2018,02,09,13,10,7.50
2018,02,09,13,11,7.50
2018,02,09,13,12,7.60
2018,02,09,13,13,7.60
2018,02,09,13,14,7.70
2018,02,09,13,15,7.80
2018,02,09,13,16,7.80
2018,02,09,13,17,7.90
2018,02,09,13,18,7.90
2018,02,09,13,19,8.00
2018,02,09,13,20,8.10
2018,02,09,13,21,8.10
2018,02,09,13,22,8.20
2018,02,09,13,23,8.30
2018,02,09,13,24,8.30
2018,02,09,13,25,8.30
2018,02,09,13,26,8.40
2018,02,09,13,27,8.40
2018,02,09,13,28,8.40
2018,02,09,13,29,8.40
2018,02,09,13,30,8.40
2018,02,09,13,31,8.40
2018,02,09,13,32,8.50
2018,02,09,13,33,8.50
2018,02,09,13,34,8.50
2018,02,09,13,35,8.50
2018,02,09,13,36,8.50
2018,02,09,13,37,8.60
2018,02,09,13,38,8.60
2018,02,09,13,39,8.60
2018,02,09,13,40,8.70
2018,02,09,13,41,8.70
2018,02,09,13,42,8.70
2018,02,09,13,43,8.70
2018,02,09,13,44,8.70
2018,02,09,13,45,8.70
2018,02,09,13,46,8.70
2018,02,09,13,47,8.70
2018,02,09,13,48,8.70
2018,02,09,13,49,8.70
2018,02,09,13,50,8.60
2018,02,09,13,51,8.60
2018,02,09,13,52,8.50
2018,02,09,13,53,8.50
2018,02,09,13,54,8.50
2018,02,09,13,55,8.50
2018,02,09,13,56,8.50
2018,02,09,13,57,8.50
2018,02,09,13,58,8.50
2018,02,09,13,59,8.60
2018,02,09,14,00,8.50
2018,02,09,14,01,8.50
2018,02,09,14,02,8.40
2018,02,09,14,03,8.40
2018,02,09,14,04,8.30
2018,02,09,14,05,8.30
2018,02,09,14,06,8.20
2018,02,09,14,07,8.20
2018,02,09,14,08,8.20
2018,02,09,14,09,8.10
2018,02,09,14,10,8.10
2018,02,09,14,11,8.00
2018,02,09,14,12,8.00
2018,02,09,14,13,7.90
2018,02,09,14,14,7.90
2018,02,09,14,15,7.90
2018,02,09,14,16,7.80
2018,02,09,14,17,7.80
2018,02,09,14,18,7.80
2018,02,09,14,19,7.80
2018,02,09,14,20,7.80
2018,02,09,14,21,7.80
2018,02,09,14,22,7.80
2018,02,09,14,23,7.80
2018,02,09,14,24,7.80
2018,02,09,14,25,7.80
2018,02,09,14,26,7.80
2018,02,09,14,27,7.80
2018,02,09,14,28,7.80
2018,02,09,14,29,7.80
2018,02,09,14,30,7.80
2018,02,09,14,31,7.80
2018,02,09,14,32,7.80
2018,02,09,14,33,7.80
2018,02,09,14,34,7.80
2018,02,09,14,35,7.80
2018,02,09,14,36,7.80
2018,02,09,14,37,7.80
2018,02,09,14,38,7.80
2018,02,09,14,39,7.80
2018,02,09,14,40,7.90
2018,02,09,14,41,7.90
2018,02,09,14,42,7.90
2018,02,09,14,43,8.00
2018,02,09,14,44,8.00
2018,02,09,14,45,8.10
2018,02,09,14,46,8.10
2018,02,09,14,47,8.10
2018,02,09,14,48,8.10
2018,02,09,14,49,8.10
2018,02,09,14,50,8.10
2018,02,09,14,51,8.10
2018,02,09,14,52,8.10
2018,02,09,14,53,8.10
2018,02,09,14,54,8.10
2018,02,09,14,55,8.10
2018,02,09,14,56,8.10
2018,02,09,14,57,8.00
2018,02,09,14,58,8.00
2018,02,09,14,59,8.10
2018,02,09,15,00,8.00
2018,02,09,15,01,8.10
2018,02,09,15,02,8.10
2018,02,09,15,03,8.10
2018,02,09,15,04,8.10
2018,02,09,15,05,8.20
2018,02,09,15,06,8.30
2018,02,09,15,07,8.30
2018,02,09,15,08,8.40
2018,02,09,15,09,8.40
2018,02,09,15,10,8.50
2018,02,09,15,11,8.50
2018,02,09,15,12,8.50
2018,02,09,15,13,8.50
2018,02,09,15,14,8.50
2018,02,09,15,15,8.60
2018,02,09,15,16,8.60
2018,02,09,15,17,8.60
2018,02,09,15,18,8.60
2018,02,09,15,19,8.70
2018,02,09,15,20,8.70
2018,02,09,15,21,8.70
2018,02,09,15,22,8.70
2018,02,09,15,23,8.70
2018,02,09,15,24,8.70
2018,02,09,15,25,8.70
2018,02,09,15,26,8.80
2018,02,09,15,27,8.80
2018,02,09,15,28,8.80
2018,02,09,15,29,8.80
2018,02,09,15,30,8.80
2018,02,09,15,31,8.80
2018,02,09,15,32,8.80
2018,02,09,15,33,8.80
2018,02,09,15,34,8.80
2018,02,09,15,35,8.80
2018,02,09,15,36,8.80
2018,02,09,15,37,8.80
2018,02,09,15,38,8.80
2018,02,09,15,39,8.80
2018,02,09,15,40,8.80
2018,02,09,15,41,8.80
2018,02,09,15,42,8.80
2018,02,09,15,43,8.80
2018,02,09,15,44,8.80
2018,02,09,15,45,8.80
2018,02,09,15,46,8.80
2018,02,09,15,47,8.80
2018,02,09,15,48,8.90
2018,02,09,15,49,8.90
2018,02,09,15,50,8.90
2018,02,09,15,51,8.90
2018,02,09,15,52,8.90
2018,02,09,15,53,8.90
2018,02,09,15,54,8.90
2018,02,09,15,55,8.90
2018,02,09,15,56,8.90
2018,02,09,15,57,8.90
2018,02,09,15,58,8.90
2018,02,09,15,59,8.90
2018,02,09,16,00,8.80
2018,02,09,16,01,8.80
2018,02,09,16,02,8.80
2018,02,09,16,03,8.80
2018,02,09,16,04,8.80
2018,02,09,16,05,8.80
2018,02,09,16,06,8.80
2018,02,09,16,07,8.80
2018,02,09,16,08,8.80
2018,02,09,16,09,8.80
2018,02,09,16,10,8.80
2018,02,09,16,11,8.70
2018,02,09,16,12,8.70
2018,02,09,16,13,8.70
2018,02,09,16,14,8.60
2018,02,09,16,15,8.60
2018,02,09,16,16,8.60
2018,02,09,16,17,8.50
2018,02,09,16,18,8.50
2018,02,09,16,19,8.40
2018,02,09,16,20,8.40
2018,02,09,16,21,8.30
2018,02,09,16,22,8.30
2018,02,09,16,23,8.20
2018,02,09,16,24,8.20
2018,02,09,16,25,8.10
2018,02,09,16,26,8.10
2018,02,09,16,27,8.00
2018,02,09,16,28,8.00
2018,02,09,16,29,7.90
2018,02,09,16,30,7.90
2018,02,09,16,31,7.80
2018,02,09,16,32,7.80
2018,02,09,16,33,7.80
2018,02,09,16,34,7.70
2018,02,09,16,35,7.70
2018,02,09,16,36,7.70
2018,02,09,16,37,7.60
2018,02,09,16,38,7.60
2018,02,09,16,39,7.60
2018,02,09,16,40,7.50
2018,02,09,16,41,7.50
2018,02,09,16,42,7.50
2018,02,09,16,43,7.40
2018,02,09,16,44,7.40
2018,02,09,16,45,7.40
2018,02,09,16,46,7.40
2018,02,09,16,47,7.40
2018,02,09,16,48,7.30
2018,02,09,16,49,7.30
2018,02,09,16,50,7.30
2018,02,09,16,51,7.30
2018,02,09,16,52,7.30
2018,02,09,16,53,7.30
2018,02,09,16,54,7.30
2018,02,09,16,55,7.30
2018,02,09,16,56,7.30
2018,02,09,16,57,7.20
2018,02,09,16,58,7.20
2018,02,09,16,59,7.20
2018,02,09,17,00,7.20
2018,02,09,17,01,7.10
2018,02,09,17,02,7.10
2018,02,09,17,03,7.00
2018,02,09,17,04,7.00
2018,02,09,17,05,6.90
2018,02,09,17,06,6.90
2018,02,09,17,07,6.90
2018,02,09,17,08,6.90
2018,02,09,17,09,6.90
2018,02,09,17,10,6.90
2018,02,09,17,11,6.90
2018,02,09,17,12,6.90
2018,02,09,17,13,6.90
2018,02,09,17,14,6.90
2018,02,09,17,15,6.90
2018,02,09,17,16,6.90
